This demonstration page uses our WeatherBlox Daily Observations layout. Learn more.

Left ArrowRight Arrow

41.12389, -100.76542

Hourly Observations for November 19, 2016

Temp ( °F °C ) Dew Point ( °F °C ) Humidity (%) Winds ( mph kmh ) Pressure ( in mb ) Visibility ( mi km ) Precip ( " mm )
12:53 am 00:53 Clear 13 -10.6 10 -12.2 88 88 NW 8 13 30.61 1037 10 16 0.00 0.00
1:53 am 01:53 Clear 12 -11.1 9 -12.8 87 87 WNW 8 13 30.61 1037 10 16 0.00 0.00
2:53 am 02:53 Clear 10 -12.2 7 -13.9 87 87 NW 6 9 30.62 1037 10 16 0.00 0.00
3:53 am 03:53 Clear 10 -12.2 7 -13.9 87 87 WNW 3 6 30.60 1036 10 16 0.00 0.00
4:53 am 04:53 Clear 9 -12.8 6 -14.4 88 88 NW 5 7 30.60 1036 10 16 0.00 0.00
5:53 am 05:53 Clear 9 -12.8 6 -14.4 88 88 NNW 3 6 30.62 1037 10 16 0.00 0.00
6:53 am 06:53 Clear 6 -14.4 4 -15.6 91 91 Calm 30.63 1037 10 16 0.00 0.00
7:23 am 07:23 Partly Cloudy 9 -13 5 -15 85 85 Calm 30.71 1040 10 16 0.00 0.00
7:32 am 07:32 Mostly Cloudy with Mist and Fog 7 -14 3 -16 85 85 Calm 30.77 1042 4 6 0.00 0.00
7:40 am 07:40 Mostly Cloudy with Mist and Fog 7 -14 5 -15 92 92 Calm 30.77 1042 3 4 0.00 0.00
7:48 am 07:48 Cloudy 7 -14 3 -16 85 85 Calm 30.74 1041 10 16 0.00 0.00
7:53 am 07:53 Cloudy 8 -13.3 4 -15.6 83 83 N 3 6 30.63 1037 7 11 0.00 0.00
8:01 am 08:01 Mostly Cloudy with Mist and Fog 9 -12.8 6 -14.4 88 88 Calm 30.71 1040 3 4 0.00 0.00
8:13 am 08:13 Partly Cloudy with Mist and Fog 10 -12 7 -14 85 85 Calm 30.74 1041 6 10 0.00 0.00
8:53 am 08:53 Sunny 13 -10.6 10 -12.2 88 88 Calm 30.64 1038 10 16 0.00 0.00
9:53 am 09:53 Sunny 19 -7.2 16 -8.9 88 88 Calm 30.62 1037 10 16 0.00 0.00
10:53 am 10:53 Sunny 28 -2.2 21 -6.1 75 75 SSE 6 9 30.58 1036 10 16 0.00 0.00
11:53 am 11:53 Sunny 33 0.6 23 -5 66 66 E 5 7 30.55 1035 10 16 0.00 0.00
12:53 pm 12:53 Sunny 35 1.7 24 -4.4 64 64 S 12 19 30.50 1033 10 16 0.00 0.00
1:53 pm 13:53 Sunny 37 2.8 24 -4.4 59 59 SSE 8 13 30.47 1032 10 16 0.00 0.00
2:53 pm 14:53 Sunny 39 3.9 25 -3.9 57 57 SE 10 17 30.43 1031 10 16 0.00 0.00
3:53 pm 15:53 Sunny 40 4.4 25 -3.9 55 55 SSE 10 17 30.42 1030 10 16 0.00 0.00
4:53 pm 16:53 Sunny 38 3.3 24 -4.4 57 57 SE 8 13 30.39 1029 10 16 0.00 0.00
5:53 pm 17:53 Clear 35 1.7 23 -5 61 61 SE 8 13 30.38 1029 10 16 0.00 0.00
6:53 pm 18:53 Clear 30 -1.1 22 -5.6 72 72 ESE 5 7 30.39 1029 10 16 0.00 0.00
7:53 pm 19:53 Clear 28 -2.2 21 -6.1 75 75 SE 8 13 30.38 1029 10 16 0.00 0.00
8:53 pm 20:53 Clear 31 -0.6 21 -6.1 67 67 SE 9 15 30.34 1028 10 16 0.00 0.00
9:53 pm 21:53 Clear 32 0 20 -6.7 61 61 SE 12 19 30.30 1026 10 16 0.00 0.00
10:53 pm 22:53 Clear 33 0.6 20 -6.7 58 58 SE 12 19 30.26 1025 10 16 0.00 0.00
11:53 pm 23:53 Clear 32 0 20 -6.7 61 61 SSE 12 19 30.22 1023 10 16 0.00 0.00

Powered by AerisWeather